Aeroporto :
LOGIN :

Iscrizione | Disclaimer

   EN    FR    IT 

 










Sommario :    VFR   VFR Marginale   IFR   IFR Intensivo   IFR Molto Intensivo
Visibilità : 
Base nubi : 
>= 8 km
>= 3000ft
5 / 8 km
1000 / 3000 ft
1500m / 5 km
500 / 1000 ft
800 / 1500m
200 / 500 ft
< 800m
< 200 ft
Simboli :   Temporali  Nebbia  Neve Forte  Precipitazioni Forti  Vento > 20 kt
SIGMETs :   Varie  Temporali  Ghiacco  Turbolenza  Onda orograficha  Ceneri Vulcaniche






- Altitudine del aeroporto : 1516 ft
- Codice IATA : AGB


EDMA - Augsburg

ULTIMO METAR :
  • 241520Z 26007KT CAVOK 21/11 Q1018

METARs OBSOLETI :
  • 241450Z 27008KT 230V290 CAVOK 21/11 Q1018
  • 241420Z 26007KT 240V300 CAVOK 21/10 Q1018
  • 241350Z 26007KT 220V280 CAVOK 21/10 Q1018

TAF TAF EDMA
Valido dal 24 a 15 ore il 25 a 00 ore UTC


241400Z 2415/2424 27007KT CAVOK
BECMG 2416/2418 VRB02KT
PROB30
TEMPO 2422/2424 1200 BCFG



MetMap, La meteo Aeronautica in un colpo d'occhio ! - Copyright ORBIFLY Dicembre 2007 - Disclaimer

ORBIFLY MET'MAP TEAM :

Programmazione e sviluppo : Alexandra Zaïnal
Concezione : Baudouin d'Aumeries
Aiuto per la programmazione : Marc-Olivier Méhu
Supporto tecnico e logistico : Manuel Goepfert
Aiuto per la traduzione : Arnaldo La Scala

Contatto : metmap@orbifly.com




FONTI E CREDITI :

   NOAA